Weather History for Hot Springs, VA

Change the Weather History Date:

Tuesday, February 12, 2013

  Actual Average Record
Temperature  
Mean Temperature 37 °F -  
Max Temperature 46 °F 35 °F 57 °F (1999)
Min Temperature 28 °F 21 °F 3 °F (2012)
Degree Days  
Heating Degree Days 28    
Moisture  
Dew Point 18 °F    
Average Humidity 51    
Maximum Humidity 74    
Minimum Humidity 31    
Precipitation  
Precipitation 0.00 in - - ()
Sea Level Pressure  
Sea Level Pressure 29.94 in    
Wind  
Wind Speed 21 mph (West)    
Max Wind Speed 32 mph    
Max Gust Speed 44 mph    
Visibility 10 miles    
Events      
Averages and records for this station are not official NWS values.
T = Trace of Precipitation, MM = Missing Value Source: NWS Daily Summary

Daily Weather History Graph

Daily Weather History Graph

Search for Another Location

Airport:

Trip Planner

Search our weather history database for the weather conditions in past years. The results will help you decide how hot, cold, wet, or windy it might be!

Date:

Astronomy

Feb. 12, 2013 Rise Set
Actual Time 7:12 AM EST 5:55 PM EST
Civil Twilight 6:45 AM EST 6:22 PM EST
Nautical Twilight 6:14 AM EST 6:53 PM EST
Astronomical Twilight 5:43 AM EST 7:23 PM EST
Moon 8:12 AM EST (2/12) 8:50 PM EST (2/12)
Length of Visible Light 11h 36m
Length of Day
10h 42m
Waxing Crescent, 7% of the Moon is Illuminated
Feb 12
Waxing Crescent
Feb 17
First Quarter
Feb 25
Full
Mar 4
Last Quarter
Mar 11
New

Hourly Weather History & Observations

Time (EST) Temp. Windchill Dew Point Humidity Pressure Visibility Wind Dir Wind Speed Gust Speed Precip Events Conditions
12:15 AM 35.6 °F 24.2 °F 21.2 °F 56% 29.91 in 10.0 mi West 21.9 mph 33.4 mph N/A   Clear
12:35 AM 35.6 °F 24.2 °F 21.2 °F 56% 29.92 in 10.0 mi West 21.9 mph 33.4 mph N/A   Clear
12:55 AM 33.8 °F 21.9 °F 21.2 °F 60% 29.92 in 10.0 mi West 21.9 mph 31.1 mph N/A   Clear
1:15 AM 33.8 °F 21.0 °F 21.2 °F 60% 29.92 in 10.0 mi West 25.3 mph 34.5 mph N/A   Clear
1:35 AM 33.8 °F 21.0 °F 21.2 °F 60% 29.92 in 10.0 mi West 25.3 mph 34.5 mph N/A   Scattered Clouds
1:55 AM 32.0 °F 18.6 °F 21.2 °F 64% 29.92 in 10.0 mi West 25.3 mph 39.1 mph N/A   Mostly Cloudy
2:15 AM 32.0 °F 19.2 °F 23.0 °F 69% 29.92 in 10.0 mi West 23.0 mph 35.7 mph N/A   Mostly Cloudy
2:35 AM 32.0 °F 18.4 °F 21.2 °F 64% 29.92 in 10.0 mi West 26.5 mph 43.7 mph N/A   Scattered Clouds
2:55 AM 30.2 °F 16.5 °F 21.2 °F 69% 29.94 in 10.0 mi West 24.2 mph 36.8 mph N/A   Scattered Clouds
3:15 AM 30.2 °F 15.9 °F 21.2 °F 69% 29.93 in 10.0 mi West 26.5 mph 38.0 mph N/A   Mostly Cloudy
3:35 AM 30.2 °F 15.9 °F 21.2 °F 69% 29.92 in 10.0 mi West 26.5 mph 38.0 mph N/A   Mostly Cloudy
3:55 AM 30.2 °F 14.7 °F 21.2 °F 69% 29.92 in 10.0 mi West 32.2 mph 39.1 mph N/A   Scattered Clouds
4:15 AM 30.2 °F 16.5 °F 21.2 °F 69% 29.91 in 10.0 mi West 24.2 mph 35.7 mph N/A   Scattered Clouds
4:35 AM 30.2 °F 15.9 °F 21.2 °F 69% 29.93 in 10.0 mi West 26.5 mph 33.4 mph N/A   Clear
4:55 AM 28.4 °F 14.1 °F 21.2 °F 74% 29.92 in 10.0 mi WNW 24.2 mph 40.3 mph N/A   Clear
5:15 AM 28.4 °F 12.7 °F 21.2 °F 74% 29.92 in 10.0 mi West 29.9 mph 42.6 mph N/A   Clear
5:35 AM 28.4 °F 13.8 °F 21.2 °F 74% 29.93 in 10.0 mi West 25.3 mph 34.5 mph N/A   Clear
6:15 AM 28.4 °F 13.8 °F 19.4 °F 69% 29.93 in 10.0 mi West 25.3 mph 38.0 mph N/A   Clear
6:35 AM 28.4 °F 13.8 °F 19.4 °F 69% 29.94 in 10.0 mi West 25.3 mph 34.5 mph N/A   Clear
6:55 AM 28.4 °F 12.7 °F 19.4 °F 69% 29.93 in 10.0 mi West 29.9 mph 42.6 mph N/A   Clear
7:15 AM 28.4 °F 13.3 °F 19.4 °F 69% 29.93 in 10.0 mi West 27.6 mph 40.3 mph N/A   Clear
7:35 AM 28.4 °F 13.8 °F 19.4 °F 69% 29.93 in 10.0 mi WNW 25.3 mph 35.7 mph N/A   Clear
7:55 AM 28.4 °F 13.5 °F 19.4 °F 69% 29.93 in 10.0 mi West 26.5 mph 33.4 mph N/A   Clear
8:15 AM 28.4 °F 13.8 °F 21.2 °F 74% 29.95 in 10.0 mi West 25.3 mph 34.5 mph N/A   Clear
8:35 AM 28.4 °F 13.5 °F 21.2 °F 74% 29.96 in 10.0 mi West 26.5 mph 34.5 mph N/A   Clear
8:55 AM 30.2 °F 16.5 °F 19.4 °F 64% 29.96 in 10.0 mi West 24.2 mph 36.8 mph N/A   Clear
9:15 AM 30.2 °F 16.2 °F 19.4 °F 64% 29.96 in 10.0 mi WNW 25.3 mph 38.0 mph N/A   Clear
9:35 AM 30.2 °F 16.2 °F 19.4 °F 64% 29.96 in 10.0 mi WNW 25.3 mph 36.8 mph N/A   Clear
9:55 AM 32.0 °F 18.1 °F 19.4 °F 60% 29.96 in 10.0 mi West 27.6 mph 38.0 mph N/A   Clear
10:15 AM 33.8 °F 21.0 °F 19.4 °F 56% 29.97 in 10.0 mi West 25.3 mph 33.4 mph N/A   Clear
10:35 AM 35.6 °F 24.2 °F 19.4 °F 52% 29.98 in 10.0 mi West 21.9 mph 32.2 mph N/A   Clear
10:55 AM 35.6 °F 24.0 °F 19.4 °F 52% 29.98 in 10.0 mi West 23.0 mph 33.4 mph N/A   Clear
11:15 AM 37.4 °F 26.6 °F 19.4 °F 48% 29.98 in 10.0 mi West 21.9 mph 32.2 mph N/A   Clear
11:35 AM 37.4 °F 26.6 °F 17.6 °F 45% 29.97 in 10.0 mi West 21.9 mph 31.1 mph N/A   Clear
11:55 AM 39.2 °F 29.8 °F 17.6 °F 42% 29.97 in 10.0 mi WNW 18.4 mph 32.2 mph N/A   Clear
12:15 PM 39.2 °F 29.6 °F 17.6 °F 42% 29.96 in 10.0 mi West 19.6 mph 28.8 mph N/A   Clear
12:35 PM 42.8 °F 35.8 °F 17.6 °F 36% 29.95 in 10.0 mi WNW 13.8 mph 23.0 mph N/A   Clear
12:55 PM 42.8 °F 34.3 °F 17.6 °F 36% 29.94 in 10.0 mi West 19.6 mph 24.2 mph N/A   Clear
1:15 PM 42.8 °F 35.1 °F 15.8 °F 34% 29.93 in 10.0 mi WNW 16.1 mph 28.8 mph N/A   Clear
1:35 PM 44.6 °F 40.2 °F 17.6 °F 34% 29.87 in 10.0 mi NNW 8.1 mph 19.6 mph N/A   Clear
1:55 PM 44.6 °F 38.8 °F 15.8 °F 31% 29.89 in 10.0 mi WNW 11.5 mph 16.1 mph N/A   Clear
2:15 PM 44.6 °F 38.4 °F 15.8 °F 31% 29.95 in 10.0 mi WNW 12.7 mph - N/A   Clear
2:35 PM 46.4 °F 40.7 °F 17.6 °F 32% 29.96 in 10.0 mi West 12.7 mph 24.2 mph N/A   Clear
2:55 PM 46.4 °F 40.4 °F 17.6 °F 32% 29.95 in 10.0 mi West 13.8 mph 20.7 mph N/A   Clear
3:15 PM 44.6 °F 38.1 °F 15.8 °F 31% 29.96 in 10.0 mi West 13.8 mph 19.6 mph N/A   Clear
3:35 PM 44.6 °F 38.1 °F 15.8 °F 31% 29.96 in 10.0 mi West 13.8 mph 20.7 mph N/A   Clear
3:55 PM 44.6 °F 37.8 °F 15.8 °F 31% 29.95 in 10.0 mi West 15.0 mph 18.4 mph N/A   Clear
4:15 PM 44.6 °F 38.4 °F 15.8 °F 31% 29.96 in 10.0 mi West 12.7 mph 23.0 mph N/A   Clear
4:35 PM 42.8 °F 35.8 °F 15.8 °F 34% 29.97 in 10.0 mi West 13.8 mph 19.6 mph N/A   Clear
4:55 PM 42.8 °F 35.1 °F 15.8 °F 34% 29.96 in 10.0 mi West 16.1 mph 24.2 mph N/A   Clear
5:15 PM 41.0 °F 32.8 °F 15.8 °F 36% 29.97 in 10.0 mi West 16.1 mph 21.9 mph N/A   Clear
5:35 PM 39.2 °F 30.8 °F 14.0 °F 36% 29.97 in 10.0 mi West 15.0 mph 21.9 mph N/A   Clear
5:55 PM 39.2 °F 31.6 °F 14.0 °F 36% 29.97 in 10.0 mi West 12.7 mph 19.6 mph N/A   Clear
6:15 PM 39.2 °F 30.8 °F 15.8 °F 39% 29.96 in 10.0 mi WNW 15.0 mph 21.9 mph N/A   Clear
6:35 PM 39.2 °F 32.5 °F 15.8 °F 39% 29.94 in 10.0 mi West 10.4 mph 18.4 mph N/A   Clear
6:55 PM 37.4 °F 34.9 °F 15.8 °F 41% 29.94 in 10.0 mi NW 3.5 mph - N/A   Clear
7:15 PM 37.4 °F 32.1 °F 15.8 °F 41% 29.94 in 10.0 mi West 6.9 mph - N/A   Clear
7:35 PM 37.4 °F 30.8 °F 15.8 °F 41% 29.93 in 10.0 mi WNW 9.2 mph - N/A   Clear
7:55 PM 35.6 °F 29.9 °F 15.8 °F 44% 29.92 in 10.0 mi West 6.9 mph - N/A   Clear
8:15 PM 37.4 °F 31.4 °F 15.8 °F 41% 29.93 in 10.0 mi West 8.1 mph - N/A   Clear
8:35 PM 37.4 °F 30.8 °F 15.8 °F 41% 29.94 in 10.0 mi West 9.2 mph - N/A   Clear
9:15 PM 35.6 °F 29.2 °F 15.8 °F 44% 29.95 in 10.0 mi West 8.1 mph - N/A   Scattered Clouds
9:35 PM 35.6 °F 28.6 °F 17.6 °F 48% 29.96 in 10.0 mi West 9.2 mph - N/A   Clear
9:55 PM 35.6 °F 28.6 °F 15.8 °F 44% 29.95 in 10.0 mi West 9.2 mph - N/A   Clear
10:15 PM 35.6 °F 28.6 °F 17.6 °F 48% 29.95 in 10.0 mi West 9.2 mph - N/A   Clear
10:35 PM 35.6 °F 28.6 °F 15.8 °F 44% 29.94 in 10.0 mi West 9.2 mph - N/A   Scattered Clouds
10:55 PM 35.6 °F 28.0 °F 15.8 °F 44% 29.94 in 10.0 mi West 10.4 mph - N/A   Mostly Cloudy
11:15 PM 35.6 °F 29.9 °F 15.8 °F 44% 29.92 in 10.0 mi West 6.9 mph - N/A   Mostly Cloudy
11:35 PM 35.6 °F 30.7 °F 15.8 °F 44% 29.93 in 10.0 mi West 5.8 mph - N/A   Scattered Clouds
11:55 PM 35.6 °F 28.6 °F 15.8 °F 44% 29.93 in 10.0 mi West 9.2 mph - N/A   Clear